Location: Fisher's Paradise
(46.5411°N, 80.0984°W)
Time: 12:32:31
(UTC-04:00)

N. Korean satellite - Visible Passes

Search period start: 18 March 2019 00:00
Search period end: 28 March 2019 00:00
Orbit: 455 x 511 km, 97.2° (Epoch: 18 March)

Date Brightness Start Highest point End Pass type
(mag) Time Alt. Az. Time Alt. Az. Time Alt. Az.
19 Mar 9.8 06:39:14 10° NE 06:41:32 16° E 06:43:52 10° SE visible
23 Mar 10.0 06:33:37 10° NE 06:35:39 14° E 06:37:42 10° SE visible
27 Mar 10.1 06:28:03 10° ENE 06:29:43 13° E 06:31:24 10° ESE visible
